Pittsburgh, PA

10:49 PM EDT on June 24, 2017 (GMT -0400)
Pittsburgh International

Weather History for KPIT - August, 2014

Change the Weather History Date:

Thursday, August 28, 2014

  Actual Average Record
Temperature  
Mean Temperature 67 °F 70 °F  
Max Temperature 74 °F 80 °F 98 °F (1948)
Min Temperature 59 °F 60 °F 44 °F (1965)
Degree Days  
Heating Degree Days 0 1  
Month to date heating degree days 10 1  
Since 1 June heating degree days 30 43  
Since 1 July heating degree days 21 5  
Cooling Degree Days 2 6  
Month to date cooling degree days 156 192  
Year to date cooling degree days 603 635  
Since 1 June cooling degree days 529 583  
Growing Degree Days 16 (Base 50)    
Moisture  
Dew Point 54 °F    
Average Humidity 68    
Maximum Humidity 90    
Minimum Humidity 46    
Precipitation  
Precipitation 0.00 in 0.11 in 2.30 in (1992)
Month to date precipitation 3.98 3.15  
Year to date precipitation 28.31 26.38  
Snow  
Snow 0.00 in 0.00 in 0.00 in (2002)
Month to date snowfall 0.0 0.0  
Since 1 July snowfall 0.0 0.0  
Snow Depth 0.00 in    
Sea Level Pressure  
Sea Level Pressure 30.11 in    
Wind  
Wind Speed 8 mph (NNW)    
Max Wind Speed 16 mph    
Max Gust Speed 21 mph    
Visibility 10 miles    
Events      
T = Trace of Precipitation, MM = Missing Value Source: NWS Daily Summary

Daily Weather History Graph

Daily Weather History Graph

Search for Another Location

Airport or City:

Trip Planner

Search our weather history database for the weather conditions in past years. The results will help you decide how hot, cold, wet, or windy it might be!

Date:

Astronomy

Aug. 28, 2014 Rise Set
Actual Time 6:44 AM EDT 7:59 PM EDT
Civil Twilight 6:16 AM EDT 8:27 PM EDT
Nautical Twilight 5:42 AM EDT 9:01 PM EDT
Astronomical Twilight 5:06 AM EDT 9:36 PM EDT
Moon 9:36 AM EDT (8/28) 9:21 PM EDT (8/28)
Length of Visible Light 14h 11m
Length of Day
13h 14m
Waxing Crescent, 8% of the Moon is Illuminated
Aug 28
Waxing Crescent
Sep 2
First Quarter
Sep 8
Full
Sep 15
Last Quarter
Sep 24
New

Hourly Weather History & Observations

Time (EDT) Temp. Dew Point Humidity Pressure Visibility Wind Dir Wind Speed Gust Speed Precip Events Conditions
12:51 AM 66.0 °F 59.0 °F 78% 30.07 in 10.0 mi North 12.7 mph - N/A   Mostly Cloudy
1:51 AM 64.9 °F 57.9 °F 78% 30.06 in 10.0 mi North 12.7 mph - N/A   Mostly Cloudy
2:51 AM 64.0 °F 57.0 °F 78% 30.07 in 10.0 mi North 10.4 mph - N/A   Mostly Cloudy
3:51 AM 62.6 °F 57.2 °F 82% 30.07 in 10.0 mi NNW 6.9 mph - N/A   Scattered Clouds
4:51 AM 61.0 °F 57.0 °F 87% 30.07 in 10.0 mi North 8.1 mph - N/A   Partly Cloudy
5:51 AM 60.1 °F 55.9 °F 86% 30.09 in 10.0 mi North 6.9 mph - N/A   Scattered Clouds
6:51 AM 59.0 °F 55.9 °F 90% 30.11 in 10.0 mi North 4.6 mph - N/A   Partly Cloudy
7:51 AM 61.0 °F 55.9 °F 83% 30.12 in 10.0 mi North 6.9 mph - N/A   Partly Cloudy
8:51 AM 63.0 °F 54.0 °F 72% 30.13 in 10.0 mi North 11.5 mph - N/A   Scattered Clouds
9:51 AM 66.0 °F 55.0 °F 68% 30.14 in 10.0 mi North 9.2 mph - N/A   Partly Cloudy
10:51 AM 68.0 °F 53.1 °F 59% 30.14 in 10.0 mi NNE 12.7 mph - N/A   Scattered Clouds
11:51 AM 66.9 °F 52.0 °F 59% 30.14 in 10.0 mi North 10.4 mph - N/A   Scattered Clouds
12:51 PM 69.1 °F 52.0 °F 54% 30.13 in 10.0 mi North 9.2 mph - N/A   Scattered Clouds
1:51 PM 71.1 °F 52.0 °F 51% 30.12 in 10.0 mi NW 10.4 mph 19.6 mph N/A   Scattered Clouds
2:51 PM 71.1 °F 51.1 °F 49% 30.11 in 10.0 mi NW 11.5 mph - N/A   Partly Cloudy
3:51 PM 73.0 °F 52.0 °F 48% 30.11 in 10.0 mi NW 9.2 mph 17.3 mph N/A   Partly Cloudy
4:51 PM 73.9 °F 52.0 °F 46% 30.10 in 10.0 mi NNW 8.1 mph - N/A   Partly Cloudy
5:51 PM 73.0 °F 52.0 °F 48% 30.10 in 10.0 mi NNW 6.9 mph - N/A   Scattered Clouds
6:51 PM 72.0 °F 51.1 °F 48% 30.10 in 10.0 mi NNW 9.2 mph - N/A   Partly Cloudy
7:51 PM 69.1 °F 51.1 °F 53% 30.11 in 10.0 mi NNW 6.9 mph - N/A   Scattered Clouds
8:51 PM 66.9 °F 50.0 °F 54% 30.13 in 10.0 mi North 6.9 mph - N/A   Partly Cloudy
9:51 PM 66.0 °F 51.1 °F 59% 30.15 in 10.0 mi NNE 9.2 mph - N/A   Partly Cloudy
10:51 PM 64.4 °F 51.8 °F 64% 30.15 in 10.0 mi Variable 4.6 mph - N/A   Partly Cloudy
11:51 PM 61.0 °F 51.1 °F 70% 30.18 in 10.0 mi Calm Calm - N/A   Partly Cloudy